[Date Prev][Date Next][Thread Prev][Thread Next] - [Date Index][Thread Index][Author Index]
2 Line ISS Keps 4-3
- Subject: [sarex] 2 Line ISS Keps 4-3
- From: "Dave Larsen PhD" <doc@xxxxxxxxxxx>
- Date: Sat, 3 Apr 2004 02:56:27 -0800
ISS
1 25544U 98067A 04094.18126624 .00051093 00000-0 45702-3 0 4935
2 25544 51.6301 347.9605 0011204 350.2606 146.9194 15.67765718306547
----
Via the sarex mailing list at AMSAT.ORG courtesy of AMSAT-NA.
To unsubscribe, send "unsubscribe sarex" to Majordomo@amsat.org
AMSAT Home